Weather in Bolshoye Sultanovo

Russia / Kurgan Oblast     54°48′58″N   62°09′49″E
temp.,
°C
wind,
m/s
gust,
m/s
humid.,
%
clouds,
%
prec.,
mm/h
press.,
hPa
HPBL,
m
6 may, thu
thu623:00+11wnw81362100 0.0 1003908
02:00+9wnw814620 0.0 10051099
05:00+7wnw712624 0.0 1008851
08:00+8wnw811595 0.0 1010997
11:00+12wnw911425 0.0 10111624
14:00+15wnw8113385 0.0 10122309
17:00+14wnw9103552 0.0 10142148
20:00+11nw610445 0.0 1015622
7 may, fri
fri723:00+8wnw37550 0.0 1018132
02:00+6w38650 0.0 1019155
05:00+5wnw34790 0.0 102157
08:00+10nw33605 0.0 1022340
11:00+15wsw22414 0.0 10221275
14:00+18wsw33333 0.0 10211593
17:00+19sw22282 0.0 10201728
20:00+15s22385 0.0 102019
8 may, sat
sat823:00+13s2239100 0.0 102014
02:00+11s2242100 0.0 102014
05:00+11sse1143100 0.0 102010
08:00+14s113897 0.0 1019166
11:00+18sse2226100 0.0 10181846
14:00+20se2222100 0.0 10172420
17:00+20ese1122100 0.0 10162620
20:00+17ne1130100 0.0 101612
9 may, sun
sun923:00+15e3334100 0.0 101655
02:00+14wsw2242100 0.0 101624
05:00+14wnw3441100 0.0 101660
08:00+15nne464093 0.0 1016326
11:00+19ne473097 0.0 10152705
14:00+20ne5731100 0.0 10152653
17:00+19ene5639100 0.0 10162228
20:00+16wnw355079 0.0 1016133
10 may, mon
mon1023:00+15nnw4950100 0.0 1016248
02:00+14n5105297 0.0 1017255
05:00+11nne410675 0.0 1018182
08:00+16ene48555 0.0 1020509
11:00+20ne57409 0.0 10202067
14:00+21ne4533100 0.0 10202458
17:00+23n2327100 0.0 10202708
20:00+19w1140100 0.0 102129